TimeEDT,TemperatureF,Dew PointF,Humidity,Sea Level PressureIn,VisibilityMPH,Wind Direction,Wind SpeedMPH,Gust SpeedMPH,PrecipitationIn,Events,Conditions,WindDirDegrees,DateUTC
12:02 AM,68.0,59.0,73,30.18,10.0,NE,6.9,-,N/A,,Overcast,40,2013-07-13 04:02:00
12:58 AM,68.4,58.6,71,30.21,10.0,NE,6.9,-,0.00,,Overcast,40,2013-07-13 04:58:00
1:58 AM,68.2,57.6,69,30.21,10.0,NE,5.8,-,N/A,,Overcast,50,2013-07-13 05:58:00
2:58 AM,68.2,57.9,70,30.22,10.0,NE,6.9,-,N/A,,Overcast,40,2013-07-13 06:58:00
3:51 AM,68.0,59.0,73,30.20,10.0,ENE,3.5,-,N/A,,Overcast,60,2013-07-13 07:51:00
3:52 AM,68.0,59.0,73,30.20,10.0,ENE,3.5,-,N/A,,Light Drizzle,70,2013-07-13 07:52:00
3:58 AM,68.0,58.6,72,30.22,10.0,NE,4.6,-,0.00,,Light Drizzle,50,2013-07-13 07:58:00
3:59 AM,68.0,59.0,73,30.20,10.0,ENE,4.6,-,N/A,,Overcast,60,2013-07-13 07:59:00
4:43 AM,68.0,59.0,73,30.21,10.0,NE,6.9,-,N/A,,Overcast,40,2013-07-13 08:43:00
4:58 AM,67.8,58.8,73,30.23,10.0,NE,6.9,-,0.00,,Overcast,40,2013-07-13 08:58:00
4:59 AM,68.0,59.0,73,30.21,10.0,NE,6.9,-,N/A,,Overcast,40,2013-07-13 08:59:00
5:53 AM,68.0,60.8,78,30.24,10.0,Variable,3.5,-,N/A,,Overcast,0,2013-07-13 09:53:00
5:56 AM,68.0,60.8,78,30.24,10.0,NE,4.6,-,N/A,,Overcast,50,2013-07-13 09:56:00
5:58 AM,68.0,60.8,78,30.26,10.0,NE,4.6,-,N/A,,Overcast,50,2013-07-13 09:58:00
5:59 AM,68.0,60.8,78,30.24,10.0,NE,4.6,-,N/A,,Overcast,50,2013-07-13 09:59:00
6:00 AM,68.0,60.8,78,30.24,10.0,NE,3.5,-,N/A,,Overcast,50,2013-07-13 10:00:00
6:04 AM,68.0,60.8,78,30.24,10.0,Variable,2.3,-,N/A,,Overcast,0,2013-07-13 10:04:00
6:05 AM,68.0,60.8,78,30.24,10.0,Variable,3.5,-,N/A,,Overcast,0,2013-07-13 10:05:00
6:06 AM,68.0,60.8,78,30.24,10.0,NNW,4.6,-,N/A,,Overcast,340,2013-07-13 10:06:00
6:11 AM,68.0,60.8,78,30.24,10.0,NNW,3.5,-,N/A,,Overcast,340,2013-07-13 10:11:00
6:20 AM,66.2,60.8,83,30.25,10.0,Variable,2.3,-,N/A,,Overcast,0,2013-07-13 10:20:00
6:29 AM,68.0,60.8,78,30.25,10.0,ENE,5.8,-,N/A,,Light Drizzle,70,2013-07-13 10:29:00
6:42 AM,66.2,62.6,88,30.25,6.0,NNE,6.9,-,N/A,Rain,Light Rain,30,2013-07-13 10:42:00
6:48 AM,64.4,64.4,100,30.25,7.0,NE,6.9,-,N/A,Rain,Light Rain,40,2013-07-13 10:48:00
6:58 AM,64.4,63.9,98,30.27,10.0,NNE,6.9,-,0.00,,Light Drizzle,20,2013-07-13 10:58:00
7:02 AM,64.4,62.6,94,30.26,10.0,NNE,6.9,-,N/A,,Light Drizzle,20,2013-07-13 11:02:00
7:04 AM,64.4,62.6,94,30.26,10.0,North,6.9,-,N/A,,Overcast,10,2013-07-13 11:04:00
7:58 AM,64.0,63.7,99,30.30,10.0,NNE,5.8,-,0.00,,Overcast,20,2013-07-13 11:58:00
8:42 AM,64.4,64.4,100,30.29,10.0,North,5.8,-,N/A,,Overcast,10,2013-07-13 12:42:00
8:46 AM,66.2,64.4,94,30.28,9.0,North,5.8,-,N/A,,Light Drizzle,10,2013-07-13 12:46:00
8:58 AM,65.7,65.3,99,30.30,9.0,NNE,8.1,-,0.00,,Light Drizzle,30,2013-07-13 12:58:00
9:06 AM,66.2,66.2,100,30.27,7.0,NNE,5.8,-,N/A,Rain,Light Rain,20,2013-07-13 13:06:00
9:19 AM,66.2,66.2,100,30.28,10.0,NNE,5.8,-,N/A,,Overcast,30,2013-07-13 13:19:00
9:22 AM,66.2,66.2,100,30.28,10.0,NNE,5.8,-,N/A,,Overcast,30,2013-07-13 13:22:00
9:42 AM,68.0,66.2,94,30.28,10.0,NNE,5.8,-,N/A,,Overcast,20,2013-07-13 13:42:00
9:58 AM,67.5,66.9,98,30.30,10.0,NNE,4.6,-,0.00,,Overcast,20,2013-07-13 13:58:00
10:01 AM,68.0,66.2,94,30.28,10.0,NNE,4.6,-,N/A,,Overcast,30,2013-07-13 14:01:00
10:35 AM,68.0,68.0,100,30.29,10.0,North,5.8,-,N/A,,Overcast,10,2013-07-13 14:35:00
10:37 AM,68.0,68.0,100,30.29,10.0,North,5.8,-,N/A,Rain,Light Rain,350,2013-07-13 14:37:00
10:42 AM,68.0,68.0,100,30.29,10.0,NNW,5.8,-,N/A,Rain,Light Rain,340,2013-07-13 14:42:00
10:51 AM,68.0,68.0,100,30.29,10.0,North,4.6,-,N/A,,Overcast,10,2013-07-13 14:51:00
10:58 AM,68.9,68.2,98,30.31,10.0,North,3.5,-,0.00,,Overcast,10,2013-07-13 14:58:00
11:07 AM,69.8,68.0,94,30.29,9.0,NNW,2.3,-,N/A,Rain,Light Rain,330,2013-07-13 15:07:00
11:14 AM,69.8,68.0,94,30.29,4.0,Variable,2.3,-,N/A,Rain,Light Rain,0,2013-07-13 15:14:00
11:25 AM,69.8,68.0,94,30.28,4.0,North,4.6,-,N/A,Rain,Light Rain,350,2013-07-13 15:25:00
11:55 AM,69.8,69.8,100,30.29,5.0,NNE,5.8,-,N/A,Rain,Light Rain,20,2013-07-13 15:55:00
11:58 AM,69.8,69.4,99,30.31,7.0,North,4.6,-,0.02,Rain,Light Rain,10,2013-07-13 15:58:00
12:17 PM,69.8,69.8,100,30.30,7.0,North,5.8,-,N/A,,Overcast,350,2013-07-13 16:17:00
12:58 PM,71.6,71.2,99,30.32,7.0,Calm,Calm,-,0.00,,Overcast,0,2013-07-13 16:58:00
1:36 PM,73.4,71.6,94,30.29,10.0,Variable,2.3,-,N/A,,Overcast,0,2013-07-13 17:36:00
1:58 PM,75.4,71.1,86,30.31,10.0,ESE,5.8,-,N/A,,Overcast,120,2013-07-13 17:58:00
2:35 PM,77.0,71.6,83,30.29,10.0,Variable,2.3,-,N/A,,Overcast,0,2013-07-13 18:35:00
2:58 PM,76.8,71.2,83,30.31,10.0,Calm,Calm,-,N/A,,Overcast,0,2013-07-13 18:58:00
3:58 PM,76.8,73.0,88,30.30,10.0,NNW,6.9,-,N/A,,Overcast,340,2013-07-13 19:58:00
4:24 PM,78.8,73.4,83,30.28,10.0,North,4.6,-,N/A,,Mostly Cloudy,360,2013-07-13 20:24:00
4:28 PM,78.8,73.4,83,30.28,10.0,North,5.8,-,N/A,,Mostly Cloudy,360,2013-07-13 20:28:00
4:58 PM,78.8,72.7,81,30.29,10.0,North,3.5,-,N/A,,Mostly Cloudy,360,2013-07-13 20:58:00
5:58 PM,78.3,72.9,83,30.28,10.0,NW,3.5,-,N/A,,Mostly Cloudy,320,2013-07-13 21:58:00
6:33 PM,78.8,73.4,83,30.27,10.0,NE,3.5,-,N/A,,Mostly Cloudy,40,2013-07-13 22:33:00
6:58 PM,77.7,73.2,86,30.29,10.0,NNW,3.5,-,N/A,,Mostly Cloudy,340,2013-07-13 22:58:00
7:02 PM,77.0,73.4,89,30.27,10.0,North,4.6,-,N/A,,Overcast,360,2013-07-13 23:02:00
7:24 PM,77.0,73.4,89,30.28,10.0,NNW,5.8,-,N/A,,Overcast,330,2013-07-13 23:24:00
7:37 PM,75.2,73.4,94,30.28,10.0,North,6.9,-,N/A,,Overcast,350,2013-07-13 23:37:00
7:58 PM,75.7,73.2,92,30.30,10.0,NNE,4.6,-,N/A,,Mostly Cloudy,20,2013-07-13 23:58:00
8:10 PM,75.2,73.4,94,30.28,10.0,NNE,5.8,-,N/A,,Mostly Cloudy,30,2013-07-14 00:10:00
8:25 PM,75.2,73.4,94,30.29,10.0,NNE,5.8,-,N/A,,Overcast,30,2013-07-14 00:25:00
8:28 PM,75.2,73.4,94,30.29,10.0,NNE,5.8,-,N/A,,Overcast,30,2013-07-14 00:28:00
8:43 PM,73.4,73.4,100,30.29,10.0,NNE,4.6,-,N/A,,Overcast,30,2013-07-14 00:43:00
8:58 PM,73.6,73.4,99,30.31,10.0,NNE,4.6,-,N/A,,Overcast,30,2013-07-14 00:58:00
9:01 PM,73.4,73.4,100,30.29,10.0,NNE,4.6,-,N/A,,Overcast,30,2013-07-14 01:01:00
9:58 PM,73.9,73.8,99,30.32,10.0,NE,2.3,-,N/A,,Overcast,50,2013-07-14 01:58:00